Schneifelwetter: Wetterstation Hallschlag, 537 m . NN
Wetterdaten: Sonntag, 12.11.2006
Datum Zeit Temp. A. Temp. 2 Feuchte A. Luftdruck Regen Wind Richtung Richtung Sonnenschein Helligkeit T Regen Taupunkt Windchill
12.11.2006 00:00 5,4 C 5,2 C 89 % 1013 hPa 0,0 l/m 44,3 km/h (6 Bft) W45 270 0 min 0 lux 0,00 min 3,7 C -8,6 C
12.11.2006 00:15 5,4 C 5,0 C 89 % 1013 hPa 0,0 l/m 39,1 km/h (6 Bft) W45 270 0 min 0 lux 0,00 min 3,7 C -7,8 C
12.11.2006 00:30 5,3 C 5,0 C 90 % 1012 hPa 0,3 l/m 45,3 km/h (6 Bft) W-SW45 255 0 min 0 lux 15,00 min 3,8 C -8,9 C
12.11.2006 00:45 5,4 C 5,0 C 91 % 1012 hPa 0,0 l/m 43,9 km/h (6 Bft) W45 270 0 min 0 lux 0,00 min 4,1 C -8,6 C
12.11.2006 01:00 5,4 C 5,0 C 91 % 1012 hPa 0,0 l/m 44,1 km/h (6 Bft) W22.5 270 0 min 0 lux 0,00 min 4,1 C -8,6 C
12.11.2006 01:15 5,6 C 5,1 C 91 % 1012 hPa 0,0 l/m 42,5 km/h (6 Bft) W45 260 0 min 0 lux 0,00 min 4,2 C -8,0 C
12.11.2006 01:30 5,6 C 5,1 C 91 % 1012 hPa 0,3 l/m 39,7 km/h (6 Bft) W67.5 265 0 min 0 lux 15,00 min 4,2 C -7,6 C
12.11.2006 01:45 5,6 C 5,2 C 92 % 1012 hPa 0,3 l/m 41,5 km/h (6 Bft) W67.5 265 0 min 0 lux 15,00 min 4,4 C -7,9 C
12.11.2006 02:00 5,6 C 5,1 C 92 % 1012 hPa 0,6 l/m 47,3 km/h (6 Bft) W22.5 270 0 min 0 lux 15,00 min 4,4 C -8,7 C
12.11.2006 02:15 5,6 C 5,2 C 92 % 1012 hPa 0,6 l/m 45,5 km/h (6 Bft) W22.5 275 0 min 0 lux 15,00 min 4,4 C -8,5 C
12.11.2006 02:30 5,7 C 5,1 C 91 % 1012 hPa 0,3 l/m 38,4 km/h (5 Bft) W45 265 0 min 0 lux 15,00 min 4,3 C -7,2 C
12.11.2006 02:45 5,7 C 5,1 C 91 % 1012 hPa 0,3 l/m 38,9 km/h (6 Bft) W45 265 0 min 0 lux 15,00 min 4,3 C -7,3 C
12.11.2006 03:00 5,8 C 5,2 C 92 % 1011 hPa 0,3 l/m 38,9 km/h (6 Bft) W45 270 0 min 0 lux 15,00 min 4,6 C -7,1 C
12.11.2006 03:16 5,8 C 5,3 C 91 % 1012 hPa 0,0 l/m 53,2 km/h (7 Bft) W22.5 265 0 min 0 lux 0,00 min 4,4 C -9,1 C
12.11.2006 03:31 5,3 C 4,7 C 88 % 1012 hPa 0,3 l/m 33,9 km/h (5 Bft) W67.5 265 0 min 0 lux 15,00 min 3,5 C -6,9 C
12.11.2006 03:46 4,8 C 4,5 C 91 % 1012 hPa 0,3 l/m 24,0 km/h (4 Bft) W-NW45 285 0 min 0 lux 15,00 min 3,5 C -4,9 C
12.11.2006 04:01 4,9 C 4,3 C 91 % 1012 hPa 0,0 l/m 35,9 km/h (5 Bft) W22.5 275 0 min 0 lux 0,00 min 3,6 C -7,9 C
12.11.2006 04:16 5,2 C 4,4 C 91 % 1012 hPa 0,0 l/m 31,7 km/h (5 Bft) W45 275 0 min 0 lux 0,00 min 3,9 C -6,5 C
12.11.2006 04:31 5,1 C 4,3 C 89 % 1012 hPa 0,0 l/m 42,1 km/h (6 Bft) W45 275 0 min 0 lux 0,00 min 3,4 C -8,7 C
12.11.2006 04:46 4,7 C 4,2 C 89 % 1012 hPa 0,0 l/m 34,6 km/h (5 Bft) W22.5 275 0 min 0 lux 0,00 min 3,0 C -7,9 C
12.11.2006 05:01 4,7 C 4,2 C 89 % 1012 hPa 0,0 l/m 34,4 km/h (5 Bft) W67.5 280 0 min 0 lux 0,00 min 3,0 C -7,9 C
12.11.2006 05:16 4,8 C 4,4 C 89 % 1012 hPa 0,0 l/m 34,6 km/h (5 Bft) W45 275 0 min 0 lux 0,00 min 3,1 C -7,8 C
12.11.2006 05:30 4,9 C 4,4 C 88 % 1013 hPa 0,0 l/m 48,4 km/h (6 Bft) W45 275 0 min 0 lux 0,00 min 3,1 C -9,9 C
12.11.2006 05:45 4,9 C 4,5 C 87 % 1013 hPa 0,0 l/m 37,5 km/h (5 Bft) W45 275 0 min 0 lux 0,00 min 2,9 C -8,2 C
12.11.2006 06:00 4,7 C 4,3 C 87 % 1013 hPa 0,0 l/m 39,8 km/h (6 Bft) W67.5 265 0 min 0 lux 0,00 min 2,7 C -8,9 C
12.11.2006 06:15 4,6 C 4,1 C 88 % 1013 hPa 0,0 l/m 43,7 km/h (6 Bft) W45 275 0 min 0 lux 0,00 min 2,8 C -9,7 C
12.11.2006 06:30 4,7 C 4,2 C 88 % 1013 hPa 0,0 l/m 47,4 km/h (6 Bft) W45 275 0 min 0 lux 0,00 min 2,9 C -10,1 C
12.11.2006 06:45 4,4 C 4,0 C 89 % 1013 hPa 0,3 l/m 36,9 km/h (5 Bft) W45 280 0 min 0 lux 15,00 min 2,7 C -8,8 C
12.11.2006 07:00 4,4 C 3,9 C 89 % 1013 hPa 0,0 l/m 41,2 km/h (6 Bft) W45 275 0 min 0 lux 0,00 min 2,7 C -9,6 C
12.11.2006 07:15 4,3 C 3,9 C 89 % 1013 hPa 0,0 l/m 36,2 km/h (5 Bft) W45 270 0 min 0 lux 0,00 min 2,7 C -8,8 C
12.11.2006 07:30 4,4 C 3,8 C 88 % 1013 hPa 0,0 l/m 38,3 km/h (5 Bft) W-NW45 285 0 min 183 lux 0,00 min 2,6 C -9,1 C
12.11.2006 07:45 4,3 C 3,8 C 88 % 1013 hPa 0,0 l/m 43,2 km/h (6 Bft) W45 275 0 min 323 lux 0,00 min 2,5 C -10,1 C
12.11.2006 08:00 4,3 C 3,6 C 87 % 1013 hPa 0,0 l/m 37,2 km/h (5 Bft) W45 270 0 min 1,38 klux 0,00 min 2,3 C -9,0 C
12.11.2006 08:15 4,3 C 3,7 C 87 % 1013 hPa 0,0 l/m 38,1 km/h (5 Bft) W-NW45 285 0 min 2,13 klux 0,00 min 2,3 C -9,2 C
12.11.2006 08:30 4,5 C 4,0 C 86 % 1013 hPa 0,0 l/m 47,7 km/h (6 Bft) W45 275 0 min 2,92 klux 0,00 min 2,4 C -10,5 C
12.11.2006 08:45 4,4 C 3,8 C 88 % 1013 hPa 0,0 l/m 30,5 km/h (5 Bft) W45 265 0 min 2,60 klux 0,00 min 2,6 C -7,3 C
12.11.2006 09:00 4,4 C 3,9 C 87 % 1014 hPa 0,0 l/m 34,5 km/h (5 Bft) W67.5 270 0 min 3,67 klux 0,00 min 2,4 C -8,3 C
12.11.2006 09:15 4,5 C 3,9 C 87 % 1014 hPa 0,3 l/m 41,3 km/h (6 Bft) W22.5 275 0 min 4,06 klux 15,00 min 2,5 C -9,5 C
12.11.2006 09:30 4,3 C 3,8 C 88 % 1014 hPa 0,3 l/m 36,5 km/h (5 Bft) W45 280 0 min 8,01 klux 15,00 min 2,5 C -8,9 C
12.11.2006 09:45 4,5 C 3,9 C 88 % 1014 hPa 0,0 l/m 33,9 km/h (5 Bft) W67.5 280 0 min 6,11 klux 0,00 min 2,7 C -8,0 C
12.11.2006 10:00 4,5 C 3,9 C 88 % 1014 hPa 0,0 l/m 34,6 km/h (5 Bft) W67.5 280 0 min 4,94 klux 0,00 min 2,7 C -8,2 C
12.11.2006 10:15 4,6 C 4,0 C 88 % 1014 hPa 0,0 l/m 33,4 km/h (5 Bft) W45 275 0 min 9,6 klux 0,00 min 2,8 C -7,8 C
12.11.2006 10:30 4,5 C 4,0 C 87 % 1014 hPa 0,3 l/m 32,6 km/h (5 Bft) W45 275 0 min 8,84 klux 15,00 min 2,5 C -7,7 C
12.11.2006 10:45 4,5 C 4,1 C 88 % 1014 hPa 0,0 l/m 33,9 km/h (5 Bft) W45 280 0 min 14,0 klux 0,00 min 2,7 C -8,0 C
12.11.2006 11:00 4,7 C 4,3 C 88 % 1015 hPa 0,0 l/m 27,5 km/h (4 Bft) W67.5 275 0 min 14,4 klux 0,00 min 2,9 C -6,1 C
12.11.2006 11:15 4,7 C 4,3 C 87 % 1015 hPa 0,0 l/m 31,6 km/h (5 Bft) W67.5 270 0 min 13,0 klux 0,00 min 2,7 C -7,2 C
12.11.2006 11:30 4,7 C 4,3 C 88 % 1015 hPa 0,3 l/m 22,0 km/h (4 Bft) W45 270 0 min 12,4 klux 15,00 min 2,9 C -4,3 C
12.11.2006 11:45 4,8 C 4,4 C 88 % 1015 hPa 0,0 l/m 35,0 km/h (5 Bft) W45 280 0 min 10,4 klux 0,00 min 3,0 C -7,8 C
12.11.2006 12:00 4,9 C 4,5 C 88 % 1015 hPa 0,3 l/m 27,8 km/h (4 Bft) W45 280 0 min 15,8 klux 15,00 min 3,1 C -5,9 C
12.11.2006 12:15 5,3 C 4,9 C 88 % 1015 hPa 0,0 l/m 25,6 km/h (4 Bft) W67.5 260 0 min 18,9 klux 0,00 min 3,5 C -4,7 C
12.11.2006 12:30 5,6 C 5,2 C 87 % 1015 hPa 0,0 l/m 27,6 km/h (4 Bft) W22.5 275 0 min 19,6 klux 0,00 min 3,6 C -4,9 C
12.11.2006 12:45 5,3 C 5,0 C 86 % 1015 hPa 0,0 l/m 30,5 km/h (5 Bft) W45 275 0 min 6,30 klux 0,00 min 3,2 C -6,1 C
12.11.2006 13:00 5,2 C 5,0 C 86 % 1015 hPa 0,0 l/m 34,0 km/h (5 Bft) W45 265 0 min 10,0 klux 0,00 min 3,1 C -7,0 C
12.11.2006 13:16 5,4 C 5,1 C 86 % 1014 hPa 0,0 l/m 31,8 km/h (5 Bft) W45 275 0 min 11,6 klux 0,00 min 3,3 C -6,3 C
12.11.2006 13:31 5,2 C 4,9 C 85 % 1015 hPa 0,0 l/m 29,0 km/h (5 Bft) W45 280 0 min 4,75 klux 0,00 min 2,9 C -5,8 C
12.11.2006 13:45 5,2 C 4,8 C 86 % 1015 hPa 0,0 l/m 31,7 km/h (5 Bft) W67.5 280 0 min 4,66 klux 0,00 min 3,1 C -6,5 C
12.11.2006 14:00 4,9 C 4,6 C 85 % 1015 hPa 0,0 l/m 25,7 km/h (4 Bft) W45 280 0 min 2,65 klux 0,00 min 2,6 C -5,3 C
12.11.2006 14:15 4,7 C 4,3 C 84 % 1015 hPa 0,0 l/m 29,5 km/h (5 Bft) W45 275 0 min 2,29 klux 0,00 min 2,2 C -6,7 C
12.11.2006 14:30 4,7 C 4,3 C 85 % 1015 hPa 0,0 l/m 23,0 km/h (4 Bft) W45 270 0 min 1,77 klux 0,00 min 2,4 C -4,7 C
12.11.2006 14:45 4,7 C 4,3 C 85 % 1015 hPa 0,0 l/m 31,6 km/h (5 Bft) W22.5 275 0 min 1,61 klux 0,00 min 2,4 C -7,2 C
12.11.2006 15:00 4,7 C 4,3 C 84 % 1015 hPa 0,0 l/m 25,3 km/h (4 Bft) W22.5 275 0 min 1,85 klux 0,00 min 2,2 C -5,4 C
12.11.2006 15:15 4,7 C 4,2 C 84 % 1015 hPa 0,0 l/m 34,8 km/h (5 Bft) W22.5 270 0 min 1,71 klux 0,00 min 2,2 C -7,9 C
12.11.2006 15:30 4,5 C 4,0 C 84 % 1015 hPa 0,0 l/m 31,2 km/h (5 Bft) W22.5 275 0 min 1,75 klux 0,00 min 2,0 C -7,4 C
12.11.2006 15:45 4,5 C 3,9 C 84 % 1015 hPa 0,0 l/m 25,3 km/h (4 Bft) W-NW67.5 285 0 min 1,51 klux 0,00 min 2,0 C -5,7 C
12.11.2006 16:00 4,5 C 4,0 C 84 % 1015 hPa 0,0 l/m 24,4 km/h (4 Bft) W22.5 270 0 min 946 lux 0,00 min 2,0 C -5,4 C
12.11.2006 16:15 4,5 C 4,0 C 83 % 1015 hPa 0,0 l/m 30,0 km/h (5 Bft) W45 265 0 min 681 lux 0,00 min 1,9 C -7,1 C
12.11.2006 16:30 4,3 C 3,8 C 83 % 1015 hPa 0,0 l/m 33,4 km/h (5 Bft) W45 280 0 min 581 lux 0,00 min 1,7 C -8,2 C
12.11.2006 16:45 4,1 C 3,5 C 84 % 1015 hPa 0,0 l/m 31,4 km/h (5 Bft) W22.5 270 0 min 238 lux 0,00 min 1,6 C -8,0 C
12.11.2006 17:00 3,9 C 3,3 C 86 % 1015 hPa 0,0 l/m 19,9 km/h (4 Bft) W22.5 270 0 min 59 lux 0,00 min 1,8 C -4,6 C
12.11.2006 17:15 3,7 C 3,1 C 87 % 1016 hPa 0,3 l/m 16,6 km/h (3 Bft) W22.5 280 0 min 29 lux 15,00 min 1,7 C -3,3 C
12.11.2006 17:30 3,5 C 3,0 C 88 % 1016 hPa 0,3 l/m 13,5 km/h (3 Bft) W67.5 280 0 min 4 lux 15,00 min 1,7 C -1,9 C
12.11.2006 17:45 3,3 C 2,8 C 88 % 1016 hPa 0,6 l/m 11,1 km/h (2 Bft) W45 265 0 min 0 lux 15,00 min 1,5 C -0,6 C
12.11.2006 18:00 3,1 C 2,6 C 89 % 1016 hPa 0,0 l/m 25,9 km/h (4 Bft) W45 275 0 min 0 lux 0,00 min 1,5 C -7,8 C
12.11.2006 18:16 3,1 C 2,5 C 89 % 1016 hPa 0,0 l/m 15,5 km/h (3 Bft) W22.5 275 0 min 0 lux 0,00 min 1,5 C -3,5 C
12.11.2006 18:31 3,2 C 2,7 C 90 % 1016 hPa 0,0 l/m 11,4 km/h (2 Bft) W22.5 260 0 min 0 lux 0,00 min 1,7 C -0,9 C
12.11.2006 18:45 3,4 C 2,8 C 91 % 1016 hPa 0,0 l/m 16,2 km/h (3 Bft) W22.5 265 0 min 0 lux 0,00 min 2,1 C -3,5 C
12.11.2006 19:00 3,5 C 3,0 C 90 % 1016 hPa 0,0 l/m 25,0 km/h (4 Bft) W22.5 275 0 min 0 lux 0,00 min 2,0 C -7,0 C
12.11.2006 19:15 3,5 C 3,0 C 90 % 1016 hPa 0,0 l/m 26,1 km/h (4 Bft) W22.5 270 0 min 0 lux 0,00 min 2,0 C -7,3 C
12.11.2006 19:30 3,4 C 3,0 C 89 % 1016 hPa 0,0 l/m 19,3 km/h (3 Bft) W22.5 265 0 min 0 lux 0,00 min 1,8 C -4,9 C
12.11.2006 19:45 3,4 C 3,0 C 89 % 1016 hPa 0,0 l/m 15,3 km/h (3 Bft) W45 265 0 min 0 lux 0,00 min 1,8 C -3,0 C
12.11.2006 20:00 3,3 C 3,0 C 90 % 1016 hPa 0,0 l/m 12,0 km/h (2 Bft) W-SW22.5 255 0 min 0 lux 0,00 min 1,8 C -1,2 C
12.11.2006 20:15 3,3 C 2,8 C 90 % 1016 hPa 0,0 l/m 14,3 km/h (3 Bft) W22.5 265 0 min 0 lux 0,00 min 1,8 C -2,6 C
12.11.2006 20:30 3,1 C 2,6 C 89 % 1016 hPa 0,0 l/m 22,5 km/h (4 Bft) W22.5 265 0 min 0 lux 0,00 min 1,5 C -6,6 C
12.11.2006 20:45 3,0 C 2,6 C 90 % 1016 hPa 0,0 l/m 19,7 km/h (3 Bft) W45 275 0 min 0 lux 0,00 min 1,5 C -5,6 C
12.11.2006 21:00 3,1 C 2,7 C 90 % 1016 hPa 0,0 l/m 18,7 km/h (3 Bft) W22.5 270 0 min 0 lux 0,00 min 1,6 C -5,1 C
12.11.2006 21:15 3,2 C 2,8 C 91 % 1016 hPa 0,0 l/m 16,4 km/h (3 Bft) W22.5 260 0 min 0 lux 0,00 min 1,9 C -3,8 C
12.11.2006 21:30 3,3 C 3,0 C 91 % 1016 hPa 0,0 l/m 16,0 km/h (3 Bft) W22.5 265 0 min 0 lux 0,00 min 2,0 C -3,5 C
12.11.2006 21:45 3,4 C 3,1 C 91 % 1016 hPa 0,3 l/m 22,2 km/h (4 Bft) W22.5 270 0 min 0 lux 15,00 min 2,1 C -6,1 C
12.11.2006 22:00 3,5 C 3,2 C 91 % 1016 hPa 0,0 l/m 18,1 km/h (3 Bft) W45 260 0 min 0 lux 0,00 min 2,2 C -4,3 C
12.11.2006 22:15 3,5 C 3,2 C 91 % 1016 hPa 0,0 l/m 21,0 km/h (4 Bft) W22.5 265 0 min 0 lux 0,00 min 2,2 C -5,5 C
12.11.2006 22:30 3,6 C 3,3 C 91 % 1016 hPa 0,0 l/m 21,0 km/h (4 Bft) W45 270 0 min 0 lux 0,00 min 2,3 C -5,4 C
12.11.2006 22:45 3,6 C 3,3 C 91 % 1016 hPa 0,0 l/m 24,1 km/h (4 Bft) W45 270 0 min 0 lux 0,00 min 2,3 C -6,5 C
12.11.2006 23:00 3,7 C 3,4 C 91 % 1016 hPa 0,0 l/m 16,5 km/h (3 Bft) W45 265 0 min 0 lux 0,00 min 2,4 C -3,3 C
12.11.2006 23:15 3,8 C 3,5 C 91 % 1016 hPa 0,0 l/m 26,6 km/h (4 Bft) W-SW45 255 0 min 0 lux 0,00 min 2,5 C -7,1 C
12.11.2006 23:30 3,8 C 3,6 C 91 % 1016 hPa 0,0 l/m 23,4 km/h (4 Bft) W-SW45 255 0 min 0 lux 0,00 min 2,5 C -6,0 C
12.11.2006 23:45 3,9 C 3,7 C 92 % 1016 hPa 0,0 l/m 26,1 km/h (4 Bft) W22.5 265 0 min 0 lux 0,00 min 2,7 C -6,8 C
_ Min-Zeit 20:45 18:16 16:15 03:00 - 17:45 - - - - - 18:00 08:30
Minimum _ 3,0 C 2,5 C 83 % 1011 hPa - 11,1 km/h (2 Bft) - - - - - 1,5 C -10,5 C
_ Max-Zeit 03:00 03:16 01:45 17:15 02:00 03:16 - - 00:00 12:30 00:30 03:00 17:45
Maximum _ 5,8 C 5,3 C 92 % 1016 hPa 0,6 l/m 53,2 km/h
W (7 Bft)
- - 0 min 19,6 klux 15,00 min 4,6 C -0,6 C
Durchschnitt _ 4,5 C 4,0 C 88 % 1014 hPa #6,6 l/m 30,8 km/h (5 Bft) W - #0 min. 2,38 klux #5:00 h 2,7 C -6,7 C